Regional Weather Roundup
Issued by NWS State College, PA

Home | Current Version | Previous Version | Graphics & Text | Print | Product List | Glossary Off
Versions: 1 2 3 4 5 6 7 8 9 10 11 12 13 14 15 16 17 18 19 20 21 22 23 24 25 26 27 28 29 30 31 32 33 34 35 36 37 38 39 40 41 42 43 44 45 46 47 48 49 50

733
ASUS41 KCTP 280210
RWRCTP

REGIONAL WEATHER ROUNDUP
NATIONAL WEATHER SERVICE STATE COLLEGE PA
1000 PM EDT TUE SEP 27 2016

Note: "fair" indicates few or no clouds below 12,000 feet with no
significant weather and/or obstructions to visibility.

* = STATION THAT DOES NOT REPORT PRECIPITATION /E.G. RAIN...SNOW...ETC/
    THUNDER OR FOG.

PAZ002>004-007>009-013>016-020>023-029>032-280300-
WESTERN PENNSYLVANIA

CITY           SKY/WX    TMP DP  RH WIND       PRES   REMARKS
ERIE           CLOUDY    62  45  53 S10       29.85R
MEADVILLE      CLOUDY    59  40  49 VRB3      29.88R
FRANKLIN*        N/A     57  37  47 S10       29.91S
NEW CASTLE     MOCLDY    59  41  51 CALM      29.90R
BEAVER COUNTY  NOT AVBL
BUTLER*        CLEAR     57  37  47 S5        29.94S
PITTSBURGH INT PTCLDY    59  42  53 S5        29.91R
PITTSBURGH     CLEAR     61  40  45 S7        29.92R
INDIANA*       CLEAR     50  48  93 CALM      29.97R
LATROBE        CLEAR     54  48  82 CALM      29.94R
WASHINGTON CO* CLEAR     46  43  87 CALM      29.93S
$$

PAZ004>006-010>012-017>019-024>028-033>037-041-042-045-046-049>053-280300-
CENTRAL PENNSYLVANIA

CITY           SKY/WX    TMP DP  RH WIND       PRES   REMARKS
BRADFORD       CLEAR     45  43  93 SE5       29.95R
DUBOIS         CLEAR     57  38  48 SE6       29.94R
CLEARFIELD     CLEAR     48  45  89 N7        29.96R
JOHNSTOWN      CLEAR     59  41  51 W5        29.96S
ALTOONA        CLEAR     52  44  74 SE3       29.96R
STATE COLLEGE  CLEAR     54  45  73 CALM      29.95S
WILLIAMSPORT   CLEAR     57  52  83 CALM      29.94R
SELINSGROVE    CLEAR     54  52  93 NW3       29.95R
FT INDIANTOWN  CLEAR     54  52  94 VRB1      29.95R
CAPITAL CITY   CLEAR     64  53  67 N3        29.94R
HARRISBURG     CLEAR     60  53  77 E5        29.93R
YORK           CLEAR     55  52  89 S3        29.94R
$$

PAZ038>040-043-044-047-048-054-055-060>062-067>071-280300-
EASTERN PENNSYLVANIA

CITY           SKY/WX    TMP DP  RH WIND       PRES   REMARKS
SCRANTON       CLEAR     56  50  80 E6        29.97R
MOUNT POCONO   CLEAR     47  44  90 CALM      30.00R
ALLENTOWN      CLEAR     54  49  83 N3        29.95R
QUAKERTOWN*    CLEAR     52  50  93 CALM      29.97R
READING        CLEAR     57  52  83 NW3       29.94R
LANCASTER      CLEAR     60  56  86 E3        29.95R
COATESVILLE    CLEAR     61  55  82 CALM      29.97R
POTTSTOWN      CLEAR     57  51  80 CALM      29.97R
BLUE BELL      CLEAR     52  50  93 CALM      29.95S
DOYLESTOWN     CLEAR     58  51  78 CALM      29.95R
WILLOW GROVE   NOT AVBL
NORTH PHILA    CLEAR     65  59  81 CALM      29.97R
PHILADELPHIA   PTCLDY    66  60  81 SW3       29.96R
$$




USA.gov is the U.S. government's official web portal to all federal, state and local government web resources and services.